Showing default

CALSPHERE 1, 900

Orbit data source: Space-Track

CALSPHERE 1, 900 is a payload satellite owned by NRL (US) in LEO that was launched on Tue, 06 Oct 1964 UTC via a THOR ABLESTAR launch vehicle from the Air Force Western Test Range (AFWTR). Payloads include a variety of satellites, spacecraft, and rockets equipped with specific instruments for various scientific and technological missions. These include communications satellites like Starlink; space stations such as the ISS; scientific satellites like the Hubble; Earth observation satellites from companies like Planet Labs, Umbra, and HawkEye 360; GPS; miniature CubeSats for education and research; and military/defense satellites.

Loading next visibility...
CALSPHERE 1 details
Identifier
900, 1964-063C
Orbit
LEO
Last TLE update5 hours ago
Origin
Flag of USNRL (US)
ManufacturerNRL
MissionOperational Defense Calibration
Bus & MotorNRL 14", Unknown motor
Mass1 kg wet, 1 kg dry
Launch date (UTC)
1964-10-06 (60 years ago)
Launch vehicle
THOR ABLESTAR
Launch site
Air Force Western Test Range (AFWTR)
Object type
Payload
Rocket body
Debris
Shape & HBRSphere, 0.36 m
Radar Cross Section0.102 m², Small (<0.1 m²)

Expand to show TLE details & history

TLE from 5 hours ago
0 CALSPHERE 1
1 00900U 64063C   25018.57241455  .00000969  00000-0  99059-3 0  9996
2 00900  90.2083  60.0550 0026747  54.0607 116.7255 13.75753341   643
Epoch: 2025-01-18T13:44Z
Definitive object data (Epoch: 2025-01-18T13:44:16.617Z)
Latitude8.87774°
Longitude-84.20164°
Altitude990.159 km
Speed7.353 km/s
True Right ascension16h 00m 20s
True Declination8° 49' 38"
Sunlit
Object was in daylight at TLE epoch
Visualization TLE readout
Latitude81.76141°
Longitude94.33907°
Altitude975.245 km
Speed7.38 km/s
Apparent Right ascension06h 51m 09s
Apparent Declination29° 37' 28"
Sunlit
Object is in daylight
Visualization observer readout
Local Sidereal Time19:25:43
Azimuth7.991° NNE
Elevation-19.997°
Doppler factor1
Orbital elements
Apogee altitude995.67 km
Perigee altitude956.33 km
Semi-major axis7,354.137 km
Eccentricity0.0026747
Inclination90.2083°
RAAN60.055°
Arg. of periapsis54.0607°
True anomaly116.99884°
Mean anomaly116.7255°
Eccentric anomaly116.86221°
Mean motion3.44148 °/min
BSTAR0.00099059
Orbital period104.61 mins
Loading maneuver chart data...
Loading historical data...
Loading historical data...
Loading historical data...
Loading historical data...
Loading historical data...
Loading historical data...
Loading historical data...

CALSPHERE 1 Visibility forecast

Observer location: undefined°, undefined

Span
Click to sort rows by Start time (UTC) header in descending order
Start Az.
Max El. time (UTC)
Max El. Az.
Max El.
End time (UTC)
End Az.
4 mins2025-01-19 01:18:31.666Z89.288° E2025-01-19 01:20:31.666Z69.651° E11.73°2025-01-19 01:22:31.666Z49.895° ENE
10 mins2025-01-19 02:59:31.666Z175.154° S2025-01-19 03:04:31.666Z2.93° NNE44.432°2025-01-19 03:09:31.666Z357.889° N
9 mins2025-01-19 13:57:31.666Z34.085° NE2025-01-19 14:01:31.666Z84.929° E25.101°2025-01-19 14:06:31.666Z140.286° SSE
10 mins2025-01-19 15:41:31.666Z342.736° N2025-01-19 15:45:31.666Z291.385° WNW33.263°2025-01-19 15:51:31.666Z212.724° SW
|